Baltimore, MD

9:05 AM EDT on June 25, 2017 (GMT -0400)
Baltimore-Washington International

Weather History for KBWI - April, 2013

Change the Weather History Date:

Monday, April 8, 2013

  Actual Average Record
Temperature  
Mean Temperature 64 °F 51 °F  
Max Temperature 78 °F 62 °F 91 °F (1929)
Min Temperature 50 °F 41 °F 26 °F (1982)
Degree Days  
Heating Degree Days 1 14  
Month to date heating degree days 139 121  
Since 1 July heating degree days 4180 4382  
Cooling Degree Days 0 0  
Month to date cooling degree days 0 0  
Year to date cooling degree days 0 1  
Growing Degree Days 14 (Base 50)    
Moisture  
Dew Point 44 °F    
Average Humidity 50    
Maximum Humidity 71    
Minimum Humidity 29    
Precipitation  
Precipitation 0.00 in 0.11 in 2.44 in (1935)
Month to date precipitation 0.15 0.93  
Year to date precipitation 8.38 10.78  
Snow  
Snow 0.00 in 0.00 in 4.00 in (1916)
Month to date snowfall T 0.0  
Since 1 July snowfall 8.0 20.1  
Snow Depth 0.00 in    
Sea Level Pressure  
Sea Level Pressure 30.01 in    
Wind  
Wind Speed 5 mph (SSW)    
Max Wind Speed 17 mph    
Max Gust Speed 22 mph    
Visibility 10 miles    
Events      
T = Trace of Precipitation, MM = Missing Value Source: NWS Daily Summary

Daily Weather History Graph

Daily Weather History Graph

Search for Another Location

Airport or City:

Trip Planner

Search our weather history database for the weather conditions in past years. The results will help you decide how hot, cold, wet, or windy it might be!

Date:

Astronomy

Apr. 08, 2013 Rise Set
Actual Time 6:39 AM EDT 7:37 PM EDT
Civil Twilight 6:12 AM EDT 8:04 PM EDT
Nautical Twilight 5:40 AM EDT 8:37 PM EDT
Astronomical Twilight 5:06 AM EDT 9:11 PM EDT
Moon 5:28 AM EDT (4/8) 6:10 PM EDT (4/8)
Length of Visible Light 13h 52m
Length of Day
12h 57m
Waning Crescent, 3% of the Moon is Illuminated
Apr 8
Waning Crescent
Apr 10
New
Apr 18
First Quarter
Apr 25
Full
May 2
Last Quarter

Hourly Weather History & Observations

Time (EDT) Temp. Dew Point Humidity Pressure Visibility Wind Dir Wind Speed Gust Speed Precip Events Conditions
12:54 AM 62.1 °F 39.0 °F 43% 30.01 in 10.0 mi SW 5.8 mph - N/A   Scattered Clouds
1:54 AM 61.0 °F 39.0 °F 44% 30.01 in 10.0 mi SW 5.8 mph - N/A   Scattered Clouds
2:54 AM 60.1 °F 39.9 °F 47% 30.00 in 10.0 mi SW 4.6 mph - N/A   Mostly Cloudy
3:54 AM 60.1 °F 39.9 °F 47% 30.01 in 10.0 mi WSW 4.6 mph - N/A   Mostly Cloudy
4:54 AM 57.0 °F 41.0 °F 55% 30.01 in 10.0 mi WSW 4.6 mph - N/A   Scattered Clouds
5:54 AM 55.0 °F 41.0 °F 59% 30.01 in 10.0 mi WSW 3.5 mph - N/A   Scattered Clouds
6:54 AM 50.0 °F 41.0 °F 71% 30.04 in 10.0 mi Calm Calm - N/A   Scattered Clouds
7:54 AM 55.9 °F 43.0 °F 62% 30.06 in 10.0 mi Calm Calm - N/A   Mostly Cloudy
8:54 AM 61.0 °F 42.1 °F 50% 30.07 in 10.0 mi WSW 4.6 mph - N/A   Scattered Clouds
9:54 AM 66.0 °F 42.1 °F 42% 30.06 in 10.0 mi Calm Calm - N/A   Mostly Cloudy
10:54 AM 71.1 °F 43.0 °F 36% 30.07 in 10.0 mi Calm Calm - N/A   Mostly Cloudy
11:54 AM 73.0 °F 43.0 °F 34% 30.06 in 10.0 mi SW 3.5 mph - N/A   Mostly Cloudy
12:54 PM 75.0 °F 43.0 °F 32% 30.04 in 10.0 mi Calm Calm - N/A   Overcast
1:54 PM 75.9 °F 43.0 °F 31% 30.01 in 10.0 mi SE 6.9 mph - 0.01 in   Mostly Cloudy
2:54 PM 77.0 °F 44.1 °F 31% 29.99 in 10.0 mi Variable 5.8 mph - N/A   Mostly Cloudy
3:54 PM 77.0 °F 43.0 °F 30% 29.97 in 10.0 mi SE 11.5 mph 17.3 mph N/A   Mostly Cloudy
4:54 PM 75.9 °F 43.0 °F 31% 29.96 in 10.0 mi SSE 10.4 mph - N/A   Mostly Cloudy
5:54 PM 73.9 °F 45.0 °F 35% 29.96 in 10.0 mi SE 9.2 mph - N/A   Mostly Cloudy
6:54 PM 71.1 °F 48.9 °F 45% 29.96 in 10.0 mi SE 11.5 mph - N/A   Mostly Cloudy
7:54 PM 69.1 °F 50.0 °F 51% 29.97 in 10.0 mi SSE 6.9 mph - N/A   Mostly Cloudy
8:54 PM 66.9 °F 51.1 °F 57% 29.97 in 10.0 mi SSE 4.6 mph - N/A   Scattered Clouds
9:54 PM 66.0 °F 50.0 °F 56% 29.98 in 10.0 mi Calm Calm - N/A   Scattered Clouds
10:54 PM 68.0 °F 48.9 °F 50% 29.97 in 10.0 mi SSW 5.8 mph - N/A   Mostly Cloudy
11:54 PM 69.1 °F 48.9 °F 49% 29.96 in 10.0 mi South 5.8 mph - N/A   Mostly Cloudy